Effective Sunday, March 17, 2024, the National Weather Service National Data Buoy Center will discontinue its Dial-A-Buoy Interactive Voice Response system. For more information, see Service Change Notice 24-06 (PDF).

Station BRND1 - 8555889 - Brandywine Shoal Light, DE Image indicating link to RSS feed of recent meteorological observations for station BRND1


Conditions at BRND1 as of
(12:00 am EST)
0500 GMT on 02/25/2024:
     

Click on the graph icon in the table below to see a time series plot of the last five days of that observation.

5-day plot - Atmospheric Pressure Atmospheric Pressure (PRES):30.03 in
5-day plot - Pressure Tendency Pressure Tendency (PTDY):+0.07 in ( Rising )
NOS Water Level Observation Network Water Level
Previous observations
TIME
(EST)
5-day plot - Wind Direction
WDIR
 
5-day plot - Wind Speed
WSPD
kts
5-day plot - Wind Gust
GST
kts
5-day plot - Wave Height
WVHT
ft
5-day plot - Dominant Wave Period
DPD
sec
5-day plot - Average Wave Period
APD
sec
5-day plot - Mean Wave Direction
MWD
 
5-day plot - Atmospheric Pressure
PRES
in
5-day plot - Pressure Tendency
PTDY
in
5-day plot - Air Temperature
ATMP
°F
5-day plot - Water Temperature
WTMP
°F
5-day plot - Dew Point
DEWP
°F
5-day plot - Salinity
SAL
psu
5-day plot - Visibility
VIS
nmi
5-day plot - Tide (above MLLW)
TIDE
ft
2024-02-24 11:54 pm-------30.02-------
2024-02-24 11:48 pm-------30.02-------
2024-02-24 11:42 pm-------30.02-------
2024-02-24 11:36 pm-------30.02-------
2024-02-24 11:30 pm-------30.02-------
2024-02-24 11:24 pm-------30.02-------
2024-02-24 11:18 pm-------30.01-------
2024-02-24 11:12 pm-------30.01-------
2024-02-24 11:06 pm-------30.01-------
2024-02-24 11:00 pm-------30.00+0.08------
2024-02-24 10:54 pm-------30.00-------
2024-02-24 10:48 pm-------30.00-------
2024-02-24 10:42 pm-------30.00-------
2024-02-24 10:36 pm-------30.00-------
2024-02-24 10:30 pm-------30.00-------
2024-02-24 10:24 pm-------30.00-------
2024-02-24 10:18 pm-------29.99-------
2024-02-24 10:12 pm-------29.99-------
2024-02-24 10:06 pm-------29.99-------
2024-02-24 10:00 pm-------29.99+0.11------
2024-02-24 09:54 pm-------29.98-------
2024-02-24 09:48 pm-------29.98-------
2024-02-24 09:42 pm-------29.98-------
2024-02-24 09:36 pm-------29.98-------
2024-02-24 09:30 pm-------29.97-------
2024-02-24 09:24 pm-------29.97-------
2024-02-24 09:18 pm-------29.97-------
2024-02-24 09:12 pm-------29.96-------
2024-02-24 09:06 pm-------29.96-------
2024-02-24 09:00 pm-------29.96+0.12------
2024-02-24 08:54 pm-------29.96-------
2024-02-24 08:48 pm-------29.95-------
2024-02-24 08:42 pm-------29.95-------
2024-02-24 08:36 pm-------29.95-------
2024-02-24 08:30 pm-------29.94-------
2024-02-24 08:24 pm-------29.94-------
2024-02-24 08:18 pm-------29.93-------
2024-02-24 08:12 pm-------29.93-------
2024-02-24 08:06 pm-------29.93-------
2024-02-24 08:00 pm-------29.92+0.12------
2024-02-24 07:54 pm-------29.92-------
2024-02-24 07:48 pm-------29.91-------
2024-02-24 07:42 pm-------29.91-------
2024-02-24 07:36 pm-------29.91-------
2024-02-24 07:30 pm-------29.91-------
2024-02-24 07:24 pm-------29.90-------
2024-02-24 07:18 pm-------29.90-------
2024-02-24 07:12 pm-------29.90-------
2024-02-24 07:06 pm-------29.89-------
2024-02-24 07:00 pm-------29.88+0.12------
2024-02-24 06:54 pm-------29.88-------
2024-02-24 06:48 pm-------29.88-------
2024-02-24 06:42 pm-------29.88-------
2024-02-24 06:36 pm-------29.87-------
2024-02-24 06:30 pm-------29.87-------
2024-02-24 06:24 pm-------29.87-------
2024-02-24 06:00 pm-------29.84+0.09------
2024-02-24 05:54 pm-------29.84-------
2024-02-24 05:48 pm-------29.83-------
2024-02-24 05:42 pm-------29.83-------
2024-02-24 05:36 pm-------29.83-------
2024-02-24 05:30 pm-------29.82-------
2024-02-24 05:24 pm-------29.82-------
2024-02-24 05:18 pm-------29.81-------
2024-02-24 05:12 pm-------29.81-------
2024-02-24 05:06 pm-------29.80-------
2024-02-24 05:00 pm-------29.80+0.06------
2024-02-24 04:54 pm-------29.79-------
2024-02-24 04:48 pm-------29.79-------
2024-02-24 04:42 pm-------29.79-------
2024-02-24 04:36 pm-------29.78-------
2024-02-24 04:30 pm-------29.78-------
2024-02-24 04:24 pm-------29.78-------
2024-02-24 04:18 pm-------29.78-------
2024-02-24 04:12 pm-------29.78-------
2024-02-24 04:06 pm-------29.77-------
2024-02-24 04:00 pm-------29.77+0.03------
2024-02-24 03:54 pm-------29.77-------
2024-02-24 03:48 pm-------29.76-------
2024-02-24 03:42 pm-------29.76-------
2024-02-24 03:36 pm-------29.76-------
2024-02-24 03:30 pm-------29.75-------
2024-02-24 03:24 pm-------29.75-------
2024-02-24 03:18 pm-------29.75-------
2024-02-24 03:12 pm-------29.75-------
2024-02-24 03:06 pm-------29.75-------
2024-02-24 03:00 pm-------29.75+0.01------
2024-02-24 02:54 pm-------29.75-------
2024-02-24 02:48 pm-------29.75-------
2024-02-24 02:42 pm-------29.74-------
2024-02-24 02:36 pm-------29.74-------
2024-02-24 02:30 pm-------29.74-------
2024-02-24 02:24 pm-------29.74-------
2024-02-24 02:18 pm-------29.74-------
2024-02-24 02:12 pm-------29.74-------
2024-02-24 02:06 pm-------29.74-------
2024-02-24 02:00 pm-------29.74+0.00------
2024-02-24 01:54 pm-------29.74-------
2024-02-24 01:48 pm-------29.74-------
2024-02-24 01:42 pm-------29.74-------
2024-02-24 01:36 pm-------29.74-------
2024-02-24 01:30 pm-------29.74-------
2024-02-24 01:24 pm-------29.74-------
2024-02-24 01:18 pm-------29.74-------
2024-02-24 01:12 pm-------29.74-------
2024-02-24 01:06 pm-------29.74-------
2024-02-24 01:00 pm-------29.74+0.03------
2024-02-24 12:54 pm-------29.74-------
2024-02-24 12:48 pm-------29.74-------
2024-02-24 12:42 pm-------29.74-------
2024-02-24 12:36 pm-------29.74-------
2024-02-24 12:30 pm-------29.74-------
2024-02-24 12:24 pm-------29.74-------
2024-02-24 12:18 pm-------29.74-------
2024-02-24 12:12 pm-------29.74-------
2024-02-24 12:06 pm-------29.74-------
2024-02-24 12:00 pm-------29.74+0.05------
2024-02-24 11:54 am-------29.74-------
2024-02-24 11:48 am-------29.74-------
2024-02-24 11:42 am-------29.73-------
2024-02-24 11:36 am-------29.73-------
2024-02-24 11:30 am-------29.73-------
2024-02-24 11:24 am-------29.73-------
2024-02-24 11:18 am-------29.73-------
2024-02-24 11:12 am-------29.73-------
2024-02-24 11:06 am-------29.73-------
2024-02-24 11:00 am-------29.73+0.05------
2024-02-24 10:54 am-------29.73-------
2024-02-24 10:48 am-------29.73-------
2024-02-24 10:42 am-------29.73-------
2024-02-24 10:36 am-------29.72-------
2024-02-24 10:30 am-------29.72-------
2024-02-24 10:24 am-------29.72-------
2024-02-24 10:18 am-------29.72-------
2024-02-24 10:12 am-------29.72-------
2024-02-24 10:06 am-------29.72-------
2024-02-24 10:00 am-------29.72+0.10------
2024-02-24 09:54 am-------29.71-------
2024-02-24 09:48 am-------29.71-------
2024-02-24 09:42 am-------29.70-------
2024-02-24 09:36 am-------29.70-------
2024-02-24 09:30 am-------29.70-------
2024-02-24 09:24 am-------29.70-------
2024-02-24 09:18 am-------29.70-------
2024-02-24 09:12 am-------29.70-------
2024-02-24 09:06 am-------29.70-------
2024-02-24 09:00 am-------29.69+0.11------
2024-02-24 08:54 am-------29.69-------
2024-02-24 08:48 am-------29.69-------
2024-02-24 08:42 am-------29.69-------
2024-02-24 08:36 am-------29.69-------
2024-02-24 08:30 am-------29.69-------
2024-02-24 08:24 am-------29.69-------
2024-02-24 08:18 am-------29.68-------
2024-02-24 08:12 am-------29.69-------
2024-02-24 08:06 am-------29.68-------
2024-02-24 08:00 am-------29.68+0.12------
2024-02-24 07:54 am-------29.67-------
2024-02-24 07:48 am-------29.67-------
2024-02-24 07:42 am-------29.66-------
2024-02-24 07:36 am-------29.65-------
2024-02-24 07:30 am-------29.64-------
2024-02-24 07:24 am-------29.63-------
2024-02-24 07:18 am-------29.62-------
2024-02-24 07:12 am-------29.62-------
2024-02-24 07:06 am-------29.62-------
2024-02-24 07:00 am-------29.61+0.06------
2024-02-24 06:54 am-------29.61-------
2024-02-24 06:48 am-------29.61-------
2024-02-24 06:42 am-------29.60-------
2024-02-24 06:36 am-------29.60-------
2024-02-24 06:30 am-------29.60-------
2024-02-24 06:24 am-------29.60-------
2024-02-24 06:18 am-------29.60-------
2024-02-24 06:12 am-------29.59-------
2024-02-24 06:06 am-------29.59-------
2024-02-24 06:00 am-------29.59+0.04------
2024-02-24 05:54 am-------29.59-------
2024-02-24 05:48 am-------29.59-------
2024-02-24 05:42 am-------29.58-------
2024-02-24 05:36 am-------29.57-------
2024-02-24 05:30 am-------29.57-------
2024-02-24 05:24 am-------29.57-------
2024-02-24 05:18 am-------29.57-------
2024-02-24 05:12 am-------29.57-------
2024-02-24 05:06 am-------29.57-------
2024-02-24 05:00 am-------29.57+0.02------
2024-02-24 04:54 am-------29.56-------
2024-02-24 04:48 am-------29.57-------
2024-02-24 04:42 am-------29.56-------
2024-02-24 04:36 am-------29.56-------
2024-02-24 04:30 am-------29.56-------
2024-02-24 04:24 am-------29.56-------
2024-02-24 04:18 am-------29.56-------
2024-02-24 04:12 am-------29.56-------
2024-02-24 04:06 am-------29.55-------
2024-02-24 04:00 am-------29.55+0.01------
2024-02-24 03:54 am-------29.55-------
2024-02-24 03:48 am-------29.55-------
2024-02-24 03:42 am-------29.55-------
2024-02-24 03:36 am-------29.55-------
2024-02-24 03:30 am-------29.55-------
2024-02-24 03:24 am-------29.55-------
2024-02-24 03:18 am-------29.54-------
2024-02-24 03:12 am-------29.54-------
2024-02-24 03:06 am-------29.54-------
2024-02-24 03:00 am-------29.54+0.01------
2024-02-24 02:54 am-------29.54-------
2024-02-24 02:48 am-------29.54-------
2024-02-24 02:42 am-------29.54-------
2024-02-24 02:36 am-------29.54-------
2024-02-24 02:30 am-------29.55-------
2024-02-24 02:24 am-------29.54-------
2024-02-24 02:18 am-------29.54-------
2024-02-24 02:12 am-------29.54-------
2024-02-24 02:06 am-------29.54-------
2024-02-24 02:00 am-------29.54+0.01------
2024-02-24 01:54 am-------29.54-------
2024-02-24 01:48 am-------29.54-------
2024-02-24 01:42 am-------29.54-------
2024-02-24 01:36 am-------29.54-------
2024-02-24 01:30 am-------29.54-------
2024-02-24 01:24 am-------29.54-------
2024-02-24 01:18 am-------29.54-------
2024-02-24 01:12 am-------29.54-------
2024-02-24 01:06 am-------29.54-------
2024-02-24 01:00 am-------29.54+0.01------
2024-02-24 12:54 am-------29.54-------
2024-02-24 12:48 am-------29.53-------
2024-02-24 12:42 am-------29.53-------
2024-02-24 12:36 am-------29.53-------
2024-02-24 12:30 am-------29.53-------
2024-02-24 12:24 am-------29.53-------
2024-02-24 12:18 am-------29.53-------
2024-02-24 12:12 am-------29.53-------
2024-02-24 12:06 am-------29.53-------
2024-02-24 12:00 am-------29.53+0.01------
2024-02-23 11:54 pm-------29.53-------